Weather History for KAQW - November, 2012

Change the Weather History Date:

Sunday, November 4, 2012

  Actual Average Record
Temperature  
Mean Temperature 38 °F -  
Max Temperature 41 °F 49 °F 71 °F (2005)
Min Temperature 35 °F 32 °F 18 °F (2013)
Degree Days  
Heating Degree Days 27    
Moisture  
Dew Point 26 °F    
Average Humidity 62    
Maximum Humidity 70    
Minimum Humidity 55    
Precipitation  
Precipitation 0.00 in - - ()
Sea Level Pressure  
Sea Level Pressure 29.95 in    
Wind  
Wind Speed 9 mph (West)    
Max Wind Speed 13 mph    
Max Gust Speed 18 mph    
Visibility 10 miles    
Events      
Averages and records for this station are not official NWS values.
T = Trace of Precipitation, MM = Missing Value Source: NWS Daily Summary

Daily Weather History Graph

Daily Weather History Graph

Search for Another Location

Airport or City:

Trip Planner

Search our weather history database for the weather conditions in past years. The results will help you decide how hot, cold, wet, or windy it might be!

Date:

Astronomy

Nov. 04, 2012 Rise Set
Actual Time 6:30 AM EST 4:40 PM EST
Civil Twilight 6:01 AM EST 5:10 PM EST
Nautical Twilight 5:27 AM EST 5:44 PM EST
Astronomical Twilight 4:54 AM EST 6:17 PM EST
Moon 9:15 PM EST (11/4) 11:14 AM EST (11/4)
Length of Visible Light 11h 09m
Length of Day
10h 09m
Waning Gibbous, 72% of the Moon is Illuminated
Nov 4
Waning Gibbous
Nov 6
Last Quarter
Nov 13
New
Nov 20
First Quarter
Nov 28
Full

Hourly Weather History & Observations

Time (EST) Temp. Windchill Dew Point Humidity Pressure Visibility Wind Dir Wind Speed Gust Speed Precip Events Conditions
12:52 AM 37.9 °F 30.0 °F 27.0 °F 65% 29.90 in 10.0 mi West 12.7 mph - N/A   Overcast
1:52 AM 37.0 °F 32.4 °F 27.0 °F 67% 29.91 in 10.0 mi WNW 5.8 mph - N/A   Overcast
1:52 AM 37.0 °F 28.9 °F 27.0 °F 67% 29.91 in 10.0 mi West 12.7 mph - N/A   Overcast
2:52 AM 36.0 °F 28.5 °F 27.0 °F 70% 29.91 in 10.0 mi WSW 10.4 mph - N/A   Mostly Cloudy
3:33 AM 35.6 °F 29.2 °F 26.6 °F 70% 29.89 in 10.0 mi West 8.1 mph - N/A   Overcast
3:52 AM 37.0 °F 29.8 °F 27.0 °F 67% 29.92 in 10.0 mi West 10.4 mph - N/A   Overcast
4:52 AM 37.0 °F 31.0 °F 27.0 °F 67% 29.94 in 10.0 mi West 8.1 mph - N/A   Overcast
5:52 AM 36.0 °F 27.5 °F 27.0 °F 70% 29.95 in 10.0 mi West 12.7 mph - N/A   Overcast
6:52 AM 36.0 °F 28.0 °F 27.0 °F 70% 29.96 in 10.0 mi West 11.5 mph 17.3 mph N/A   Overcast
7:38 AM 37.4 °F 29.8 °F 26.6 °F 65% 29.95 in 10.0 mi West 11.5 mph - N/A   Overcast
7:52 AM 37.0 °F 30.4 °F 27.0 °F 67% 29.97 in 10.0 mi West 9.2 mph - N/A   Overcast
8:52 AM 39.9 °F 33.4 °F 27.0 °F 60% 29.96 in 10.0 mi West 10.4 mph - N/A   Overcast
9:00 AM 39.2 °F 32.5 °F 26.6 °F 61% 29.94 in 10.0 mi West 10.4 mph - N/A   Overcast
9:52 AM 39.9 °F 33.9 °F 26.1 °F 58% 29.96 in 10.0 mi WNW 9.2 mph 16.1 mph N/A   Overcast
10:19 AM 41.0 °F 38.0 °F 26.6 °F 57% 29.94 in 10.0 mi Variable 4.6 mph - N/A   Overcast
10:43 AM 39.2 °F 34.2 °F 26.6 °F 61% 29.94 in 10.0 mi Variable 6.9 mph 18.4 mph N/A   Overcast
10:52 AM 41.0 °F 35.8 °F 27.0 °F 57% 29.96 in 10.0 mi West 8.1 mph - N/A   Overcast
11:52 AM 41.0 °F 38.0 °F 26.1 °F 55% 29.95 in 10.0 mi NW 4.6 mph - N/A   Overcast
12:52 PM 41.0 °F 38.0 °F 27.0 °F 57% 29.95 in 10.0 mi Variable 4.6 mph - N/A   Overcast
1:52 PM 41.0 °F 35.8 °F 26.1 °F 55% 29.94 in 10.0 mi NW 8.1 mph - N/A   Overcast
2:52 PM 41.0 °F 39.0 °F 26.1 °F 55% 29.94 in 10.0 mi WNW 3.5 mph - N/A   Overcast
3:52 PM 41.0 °F 36.4 °F 26.1 °F 55% 29.95 in 10.0 mi West 6.9 mph - N/A   Overcast
4:52 PM 39.9 °F 35.1 °F 26.1 °F 58% 29.95 in 10.0 mi West 6.9 mph - N/A   Overcast
5:52 PM 39.0 °F 35.7 °F 26.1 °F 60% 29.96 in 10.0 mi West 4.6 mph - N/A   Overcast
6:52 PM 39.0 °F 34.0 °F 27.0 °F 62% 29.96 in 10.0 mi West 6.9 mph - N/A   Overcast
7:52 PM 37.9 °F 32.1 °F 26.1 °F 62% 29.97 in 10.0 mi WSW 8.1 mph - N/A   Overcast
8:52 PM 37.9 °F 32.7 °F 25.0 °F 60% 29.99 in 10.0 mi WNW 6.9 mph - N/A   Overcast
9:52 PM 37.0 °F 31.0 °F 25.0 °F 62% 29.99 in 10.0 mi West 8.1 mph - N/A   Overcast
10:52 PM 36.0 °F 30.3 °F 25.0 °F 64% 29.99 in 10.0 mi WNW 6.9 mph - N/A   Overcast